www.pogodaiklimat.ru
Время
(UTC), дата
04 12.04
05 12.04
06 12.04
07 12.04
08 12.04
09 12.04
10 12.04
11 12.04
12 12.04
13 12.04
14 12.04
15 12.04
16 12.04
17 12.04
18 12.04
19 12.04
20 12.04
21 12.04
22 12.04
23 12.04
00 13.04
01 13.04
02 13.04
03 13.04
04 13.04
05 13.04
06 13.04
07 13.04
08 13.04
09 13.04
10 13.04
11 13.04
12 13.04
13 13.04
14 13.04
15 13.04
16 13.04
17 13.04
18 13.04
19 13.04
20 13.04
21 13.04
22 13.04
23 13.04
00 14.04
01 14.04
02 14.04
03 14.04
04 14.04
05 14.04
06 14.04
07 14.04
08 14.04
09 14.04
10 14.04
11 14.04
12 14.04
13 14.04
14 14.04
15 14.04
16 14.04
17 14.04
18 14.04
19 14.04
20 14.04
21 14.04
22 14.04
23 14.04
00 15.04
01 15.04
02 15.04
03 15.04
04 15.04
05 15.04
06 15.04
07 15.04
08 15.04
09 15.04
10 15.04
11 15.04
12 15.04
13 15.04
14 15.04
15 15.04
16 15.04
17 15.04
18 15.04
19 15.04
20 15.04
21 15.04
22 15.04
23 15.04
00 16.04
01 16.04
02 16.04
03 16.04
04 16.04
05 16.04
06 16.04
07 16.04
08 16.04
09 16.04
10 16.04
11 16.04
12 16.04
13 16.04
14 16.04
15 16.04
16 16.04
17 16.04
18 16.04
19 16.04
20 16.04
21 16.04
22 16.04
23 16.04
00 17.04
01 17.04
02 17.04
03 17.04
04 17.04
05 17.04
06 17.04
07 17.04
08 17.04
09 17.04
10 17.04
11 17.04
12 17.04
13 17.04
14 17.04
15 17.04
16 17.04
17 17.04
18 17.04
19 17.04
20 17.04
21 17.04
22 17.04
23 17.04
00 18.04
01 18.04
02 18.04
03 18.04
04 18.04
05 18.04
06 18.04
07 18.04
08 18.04
09 18.04
10 18.04
11 18.04
12 18.04
13 18.04
14 18.04
15 18.04
16 18.04
17 18.04
18 18.04
19 18.04
20 18.04
21 18.04
22 18.04
23 18.04
00 19.04
01 19.04
02 19.04
03 19.04
Ветер
(напр.,м/с)
Видим. Явления Облачность Т
(С)
Тd
(С)
f
(%)
Тe
(С)
Тes
(С)
Комфортность P
(гПа)
Po
(гПа)
Тmin
(С)
Tmax
(С)
R
(мм)
R24
(мм)
S
(см)
СЗ 2 20 км 9/9 450 м
[Sc]
+9.2 +7.0 86 +7 +7 тепло 1015.1 1000.3
СЗ 3 10 км 9/9 270 м
[Sc]
+9.0 +7.1 88 +6 +6 тепло 1016.4 1001.6
СЗ 4
{8}
12 км 10/9 330 м
[Sc]
+8.2 +5.8 85 +5 +5 по сезону 1017.2 1002.3 +3.4 +13.3
СЗ 3 10 км 10/10 90 м
[St]
+7.1 +5.4 89 +4 +4 тепло 1018.1 1003.2
СЗ 3
{8}
12 км 10/10 100 м
[St]
+6.6 +5.1 90 +3 +3 тепло 1019.0 1004.0
СЗ 5
{10}
25 км 10/10 180 м
[St]
+6.2 +4.0 86 +2 +2 прохладно 1019.9 1004.9
СЗ 4-9
{9}
20 км 10/10 180 м
[St]
+5.6 +3.8 88 +2 +2 по сезону 1020.5 1005.4
СЗ 3-8
{8}
10 км 10/10 90 м
[St]
+5.1 +3.3 88 +2 +2 по сезону 1021.2 1006.1
СЗ 3-8
{10}
20 км 10/10 180 м
[Sc]
+5.2 +2.5 83 +2 +2 очень
холодно
1021.9 1006.8
СЗ 4-9
{9}
20 км слаб. дождь 10/10 180 м
[Sc]
+4.9 +1.4 78 +1 +1 холодно 1022.3 1007.2
СЗ 3
{10}
30 км слаб. дождь 10/10 270 м
[Sc]
+4.0 +1.9 86 0 0 холодно 1023.3 1008.1
СЗ 3-9
{10}
40 км в посл. час дождь 10/9 300 м
[Sc]
+3.8 +1.5 85 0 0 очень
холодно
1023.7 1008.5
СЗ 3
{9}
20 км слаб. дождь 10/9 150 м
[Frnb]
+3.1 +1.5 89 -1 -1 очень
холодно
1024.3 1009.0
СЗ 2 25 км слаб. дождь 10/9 240 м
[Sc]
+3.1 +1.6 90 0 0 прохладно 1025.0 1009.7
СЗ 2
{10}
15 км слаб. дождь 10/9 180 м
[Sc]
+2.8 +1.5 91 -0 -0 очень
холодно
1025.7 1010.4 +2.8 +8.2 0.5
СЗ 2 12 км слаб. дождь 10/9 180 м
[Sc]
+3.1 +2.1 93 -0 -0 холодно 1026.1 1010.8
СЗ 2 12 км слаб. дождь 10/9 180 м
[Sc]
+2.8 +1.8 93 -0 -0 прохладно 1026.5 1011.2
СЗ 3 15 км слаб. дождь 10/9 120 м
[Frnb]
+2.9 +1.9 93 -1 -1 холодно 1026.6 1011.3
СЗ 2 15 км слаб. дождь 10/9 450 м
[Sc]
+2.8 +1.6 92 -0 -0 по сезону 1026.9 1011.6
З 2 10 км слаб. дождь 10/9 330 м
[Sc]
+2.8 +1.9 94 -1 -1 по сезону 1027.0 1011.7
СЗ 2 8000 м слаб. дождь 10/9 150 м
[Sc]
+2.8 +2.1 95 -1 -1 прохладно 1027.1 1011.8 2
СЗ 1 8000 м слаб. дождь 10/9 180 м
[Sc]
+3.0 +2.1 94 +1 +1 по сезону 1027.0 1011.7
СЗ 1 10 км слаб. дождь 10/9 180 м
[Sc]
+2.9 +1.7 92 +1 +1 тепло 1027.3 1012.0
СВ 2 20 км слаб. дождь 10/9 450 м
[Sc]
+3.0 +1.5 90 -0 -0 по сезону 1027.2 1011.9
СЗ 1 15 км в посл. час дождь 10/3 1500 м
[Sc Ac As]
+2.2 +0.6 89 0 0 по сезону 1027.2 1011.9
ЮЗ 1 20 км 10/9 600 м
[Sc]
+2.4 +1.4 93 +1 +1 тепло 1027.8 1012.5
З 1 30 км {дождь} 10/5 300 м
[Cu Sc Ac As]
+3.3 +2.1 92 +2 +2 по сезону 1027.8 1012.5 +1.7 +3.3 3 3.9
З 2 40 км 10/5 300 м
[Sc Ac As]
+4.0 +2.3 89 +1 +2 по сезону 1028.2 1012.9
СЗ 2 40 км 10/8 360 м
[Sc Ac As Cs]
+4.5 +1.7 82 +2 +3 тепло 1028.1 1012.9
С 2 40 км 9/6 480 м
[Cu med, cong Ac trans Cs]
+5.6 +1.5 75 +3 +6 прохладно 1028.1 1012.9
СЗ 2 40 км слаб. крупа 9/6 600 м
[Cb calv Ac trans Cs]
+6.1 +0.4 67 +4 +7 по сезону 1027.8 1012.7
СЗ 3 20 км в посл. час крупа {ливн. снег} 10/5 1000 м
[Cb calv Ac trans Cs]
+7.7 -1.3 53 +5 +8 тепло 1027.3 1012.2
СЗ 3
{8}
30 км осадки на расстоянии {ливн. дождь} 10/4 1000 м
[Cb calv Cs]
+7.8 -3.7 44 +6 +10 прохладно 1027.0 1012.0 0.0
С 4
{8}
50 км 10/3 1500 м
[Cu med, cong Ac As]
+8.4 -3.8 42 +6 +7 прохладно 1026.1 1011.1
С 3 50 км 9/3 1500 м
[Cu med, cong Ac As]
+8.7 -3.2 43 +7 +8 по сезону 1025.7 1010.7
С 4
{8}
50 км 9/5 1500 м
[Cu med, cong Ac As]
+8.7 -3.5 42 +6 +7 прохладно 1025.4 1010.4
СЗ 3
{9}
50 км 10/4 1500 м
[Cu med, cong Ac As]
+8.3 -3.9 42 +6 +7 по сезону 1025.1 1010.1
СЗ 3
{8}
50 км 10/3 1500 м
[Cu med, cong Ac As]
+7.8 -3.7 44 +6 +6 по сезону 1025.3 1010.3
СЗ 2
{9}
40 км 10/1 2000 м
[Sc diur, vesp Ac As]
+7.1 -2.9 49 +6 +6 по сезону 1025.5 1010.4 +3.3 +9.0 0.0
СЗ 1 40 км 8/0
[Ac trans Cs]
+6.2 -2.4 54 +6 +6 по сезону 1025.6 1010.5
СЗ 2 30 км 9/0
[Ac trans Cs]
+5.7 -1.9 58 +4 +4 по сезону 1025.5 1010.4
СЗ 2 30 км 10/3 1500 м
[Sc Ac As]
+5.4 -1.8 60 +3 +3 по сезону 1025.7 1010.5
СЗ 2 30 км 10/6 1500 м
[Sc Ac As]
+5.2 -1.7 61 +3 +3 по сезону 1025.7 1010.5
СЗ 1 30 км 9/9 1500 м
[Sc]
+4.8 -1.7 63 +4 +4 тепло 1025.6 1010.4
СЗ 1 40 км 9/9 1500 м
[Sc]
+4.4 -1.6 65 +3 +3 по сезону 1025.1 1009.9
СЗ 2 40 км 9/0
[Ac As]
+4.2 -1.4 67 +2 +2 по сезону 1025.0 1009.8
С 2 40 км 10/6 1500 м
[Sc Ac As]
+4.3 -1.3 67 +2 +2 тепло 1025.0 1009.8
СЗ 2 40 км 10/9 1000 м
[Sc]
+4.0 -1.2 69 +1 +1 по сезону 1025.1 1009.9
СЗ 2 40 км 10/10 1000 м
[Sc]
+3.7 -1.1 71 +1 +1 по сезону 1024.9 1009.7
СЗ 2 40 км 10/9 1000 м
[Sc]
+3.3 -0.9 74 +1 +1 тепло 1025.5 1010.2
СЗ 3 40 км 10/9 1000 м
[Sc]
+3.5 -0.7 74 -0 -0 по сезону 1025.6 1010.3 +3.3 +7.1 0.0
СЗ 3 40 км 10/4 600 м
[Cu Sc As op]
+4.1 -0.1 74 +1 +1 по сезону 1025.5 1010.3
СЗ 3 40 км 10/3 600 м
[Cu hum Cs]
+5.0 0.0 70 +2 +6 тепло 1025.4 1010.2
СЗ 4
{9}
30 км 10/9 600 м
[Cu med, cong]
+5.9 -0.2 65 +2 +3 прохладно 1025.1 1010.0
СЗ 4-9
{9}
30 км 9/9 600 м
[Cu med, cong]
+6.1 -1.1 60 +3 +4 по сезону 1024.7 1009.6
СЗ 3-8
{8}
30 км 9/9 600 м
[Cb calv]
+5.9 -1.3 60 +3 +4 по сезону 1024.5 1009.4
СЗ 4
{9}
30 км слаб. ливневой дождь 10/9 600 м
[Cb calv]
+6.2 -0.8 61 +3 +3 холодно 1024.5 1009.4 0.0
С 4
{9}
40 км в посл. час ливневой дождь 9/9 600 м
[Cb cap]
+7.1 -1.6 54 +4 +5 прохладно 1024.2 1009.2
СЗ 3
{10}
40 км слаб. ливневой дождь 9/9 600 м
[Cb cap]
+5.6 +0.2 68 +3 +3 прохладно 1024.1 1009.0
С 4-9
{10}
35 км слаб. ливневой дождь 10/9 600 м
[Cb cap]
+6.6 -1.6 56 +3 +4 холодно 1023.9 1008.8
СЗ 3
{9}
40 км в посл. час ливневой дождь 10/9 600 м
[Cb cap]
+6.4 -0.6 61 +4 +4 прохладно 1023.9 1008.8
С 3
{9}
50 км 9/1 1000 м
[Cu med, cong Ac As]
+6.6 -2.6 52 +4 +4 по сезону 1023.8 1008.7
СЗ 3
{10}
50 км {ливн. дождь} 9/0
[Ac As]
+5.3 -1.0 64 +2 +2 холодно 1024.1 1009.0 +3.5 +7.6 0.0
СЗ 2 50 км 9/0
[Ac As]
+4.5 -1.1 67 +2 +2 прохладно 1024.4 1009.2
СЗ 2 50 км 10/0
[Ac As]
+4.4 -1.0 68 +2 +2 по сезону 1024.7 1009.5
СЗ 2 50 км 10/0 2000 м
[Ac As]
+4.4 -1.2 67 +2 +2 прохладно 1024.5 1009.3
С 2 40 км слаб. дождь 10/5 600 м
[Sc As op]
+4.3 -0.9 69 +2 +2 по сезону 1024.7 1009.5
С 2 15 км слаб. дождь 10/9 330 м
[Sc]
+3.8 +0.7 80 +1 +1 по сезону 1024.8 1009.6
С 2 50 км в посл. час дождь 10/9 1000 м
[Sc]
+3.4 +1.1 85 0 0 по сезону 1024.5 1009.3 0.3
СЗ 1 25 км слаб. дождь 10/9 240 м
[Sc]
+3.1 +0.8 85 +2 +2 по сезону 1024.3 1009.0
З 3 25 км в посл. час дождь 10/5 600 м
[Sc Ac As]
+2.3 +0.8 90 -2 -2 по сезону 1024.0 1008.7
СЗ 3 30 км {дождь} 10/9 400 м
[Sc]
+2.2 +1.2 93 -2 -2 прохладно 1023.8 1008.5
СЗ 2 40 км 10/9 600 м
[Sc]
+2.0 +0.2 88 -1 -1 по сезону 1023.9 1008.6
СЗ 2 50 км 10/9 600 м
[Sc]
+1.9 -0.4 85 -1 -1 по сезону 1024.1 1008.8
СЗ 3 10 км слаб. дождь со снегом 10/5 600 м
[Sc As op]
+1.8 -0.3 86 -3 -2 холодно 1024.0 1008.7 +1.8 +5.3 0.3 0.3
СЗ 3 9000 м слаб. дождь со снегом 10/9 180 м
[Frnb]
+1.8 +0.5 91 -3 -2 по сезону 1023.7 1008.4
СЗ 3
{8}
8000 м слаб. дождь со снегом 10/9 180 м
[Frnb]
+1.8 +0.6 92 -3 -2 по сезону 1023.5 1008.2
СЗ 3
{8}
7000 м слаб. дождь со снегом 10/9 180 м
[Frnb]
+1.9 +0.9 93 -3 -2 очень
холодно
1023.3 1008.0
СЗ 4
{9}
7000 м слаб. дождь со снегом 10/9 180 м
[Frnb]
+2.0 +1.0 93 -3 -3 холодно 1023.1 1007.8
СЗ 4
{10}
8000 м слаб. дождь со снегом 10/9 180 м
[Frnb]
+2.2 +1.2 93 -3 -2 прохладно 1022.8 1007.5
СЗ 3
{10}
9000 м слаб. дождь 10/9 180 м
[Frnb]
+2.5 +1.5 93 -2 -1 очень
холодно
1022.6 1007.3 4
СЗ 3
{8}
10 км слаб. дождь 10/9 180 м
[Frnb]
+2.9 +1.9 93 -1 -1 очень
холодно
1022.3 1007.1
СЗ 3-8
{9}
8000 м слаб. дождь 10/9 180 м
[Frnb]
+2.9 +1.7 92 -1 -1 холодно 1022.3 1007.1
СЗ 3-8
{9}
10 км слаб. дождь 10/9 180 м
[Frnb]
+2.3 +1.1 92 -2 -2 очень
холодно
1022.4 1007.1
СЗ 3
{9}
10 км слаб. дождь 10/9 180 м
[Frnb]
+2.2 +1.2 93 -2 -2 очень
холодно
1022.2 1006.9
СЗ 2 15 км слаб. дождь 10/9 180 м
[Frnb]
+1.9 +1.0 94 -2 -2 холодно 1022.1 1006.8
СЗ 3
{9}
10 км слаб. дождь 10/9 120 м
[Frnb]
+1.6 +0.7 94 -3 -3 очень
холодно
1022.1 1006.8 +1.6 +3.2 8
СЗ 2 15 км слаб. дождь 10/9 150 м
[Frnb]
+1.9 +1.0 94 -2 -2 очень
холодно
1022.4 1007.1
СЗ 2 20 км слаб. дождь 10/9 150 м
[Frnb]
+1.9 +1.0 94 -2 -2 холодно 1022.3 1007.0
СЗ 2 20 км слаб. дождь 10/9 120 м
[Frnb]
+1.8 +0.9 94 -2 -2 холодно 1022.2 1006.9
СЗ 2 20 км слаб. дождь 10/9 120 м
[Frnb]
+1.7 +1.0 95 -2 -2 прохладно 1022.1 1006.8
СЗ 2 10 км слаб. дождь со снегом 10/9 120 м
[Frnb]
+1.5 +0.8 95 -2 -2 по сезону 1021.9 1006.6
СЗ 3 15 км слаб. дождь 10/9 90 м
[Frnb]
+1.6 +0.9 95 -3 -3 прохладно 1021.5 1006.2 1
СЗ 3 10 км слаб. дождь 10/9 90 м
[Frnb]
+1.6 +1.0 96 -3 -3 по сезону 1021.1 1005.8
СЗ 3 8000 м слаб. дождь 10/9 90 м
[Frnb]
+1.7 +1.1 96 -3 -3 по сезону 1020.9 1005.6
СЗ 3 8000 м слаб. дождь 10/9 90 м
[Frnb]
+1.7 +1.1 96 -3 -3 прохладно 1021.0 1005.7
СЗ 4 5000 м слаб. дождь 10/9 90 м
[Frnb]
+1.9 +1.3 96 -3 -3 по сезону 1020.8 1005.5
СЗ 4 1500 м слаб. дождь 10/9 60 м
[Frnb]
+2.1 +1.7 97 -3 -3 по сезону 1021.0 1005.7
СЗ 3 2500 м дождь {морось} 10/9 60 м
[Frnb]
+2.4 +2.0 97 -2 -2 прохладно 1021.1 1005.9 +1.4 +2.4 1 8.9
СЗ 3 3500 м слаб. морось {дождь} 10/10 90 м
[St]
+2.9 +2.5 97 -1 -1 по сезону 1021.2 1006.0
СЗ 4 10 км слаб. дождь {морось} 10/9 120 м
[Frnb]
+3.1 +2.7 97 -2 -2 по сезону 1021.3 1006.1
СЗ 4 10 км слаб. дождь {морось} 10/9 120 м
[Frnb]
+3.3 +2.9 97 -2 -1 холодно 1021.5 1006.3
СЗ 3 40 км в посл. час дождь 10/9 180 м
[Frnb]
+3.7 +3.0 95 -0 0 прохладно 1021.7 1006.5
СЗ 3 25 км 10/9 180 м
[Frnb]
+4.2 +3.2 93 0 +1 по сезону 1021.4 1006.2
СЗ 3
{8}
15 км слаб. дождь {морось} 10/9 240 м
[Frnb]
+4.6 +3.3 91 +1 +1 очень
холодно
1021.5 1006.4 0.1
СЗ 2 30 км в посл. час дождь 10/9 240 м
[Sc]
+4.9 +3.4 90 +2 +3 прохладно 1021.4 1006.3
СЗ 3 35 км 10/9 270 м
[Sc]
+5.2 +3.4 88 +2 +2 по сезону 1021.1 1006.0
СЗ 2 30 км слаб. дождь 10/9 270 м
[Sc]
+4.8 +3.0 88 +2 +2 холодно 1021.3 1006.2
СЗ 2 25 км слаб. дождь 10/9 270 м
[Frnb]
+4.8 +3.0 88 +2 +2 прохладно 1021.2 1006.1
СЗ 3 25 км слаб. дождь 10/9 240 м
[Sc]
+4.4 +2.9 90 +1 +1 по сезону 1021.2 1006.1
З 3 25 км слаб. дождь 10/10 300 м
[Sc]
+4.2 +3.0 92 0 0 холодно 1021.5 1006.3 +2.4 +5.2 0.4
З 3 20 км слаб. дождь 10/10 600 м
[Sc]
+4.3 +3.3 93 +1 +1 прохладно 1021.5 1006.4
З 4 12 км слаб. дождь 10/10 600 м
[Sc]
+4.2 +3.2 93 -0 -0 по сезону 1021.4 1006.2
СЗ 2 9000 м слаб. дождь 10/10 400 м
[Sc]
+4.4 +3.5 94 +2 +2 по сезону 1021.2 1006.1
СЗ 2 12 км слаб. дождь 10/10 330 м
[Sc]
+4.5 +3.5 93 +2 +2 по сезону 1021.1 1006.0
СЗ 2 15 км слаб. дождь 10/9 240 м
[Sc]
+3.7 +2.4 91 +1 +1 по сезону 1021.2 1006.0
СЗ 1 15 км слаб. дождь 10/9 180 м
[Frnb]
+3.6 +2.6 93 +2 +2 по сезону 1020.8 1005.6 3
СЗ 2 20 км в посл. час дождь 10/9 180 м
[Sc]
+3.4 +2.4 93 0 0 по сезону 1020.6 1005.4
СЗ 3 10 км слаб. морось 10/10 150 м
[St]
+3.2 +2.3 94 -1 -1 тепло 1020.7 1005.5
СЗ 2 3500 м слаб. морось {дождь} 10/10 90 м
[St]
+3.0 +2.3 95 -0 -0 по сезону 1020.4 1005.2
З 3 3000 м слаб. морось 10/9 90 м
[St]
+3.0 +2.4 96 -1 -1 по сезону 1020.4 1005.2
СЗ 2 5000 м слаб. морось 10/10 90 м
[St]
+3.0 +2.4 96 -0 -0 тепло 1020.8 1005.6
СЗ 3 5000 м слаб. морось {дождь} 10/10 90 м
[St]
+3.1 +2.7 97 -1 -1 по сезону 1020.9 1005.7 +3.0 +4.6 3 3.5
СЗ 2 4500 м в посл. час морось 10/10 60 м
[St]
+3.4 +3.0 97 0 0 по сезону 1020.9 1005.7
СЗ 2 7000 м дымка 10/10 90 м
[St]
+3.8 +3.4 97 +1 +1 тепло 1021.1 1005.9
СЗ 2 12 км {морось} 10/10 120 м
[St]
+4.4 +3.8 96 +1 +1 прохладно 1020.9 1005.8
З 3 15 км 10/10 180 м
[St]
+5.0 +4.1 94 +1 +1 по сезону 1020.8 1005.7
СЗ 3
{7}
20 км 10/10 270 м
[Sc]
+5.4 +3.9 90 +2 +2 по сезону 1020.5 1005.4
З 3
{7}
20 км {морось} 10/10 330 м
[Sc]
+6.3 +4.3 87 +3 +3 прохладно 1020.5 1005.5 0.0
З 3 20 км 10/10 330 м
[Sc]
+6.4 +4.2 86 +3 +3 по сезону 1020.5 1005.5
СЗ 2 12 км слаб. ливневой дождь 10/9 360 м
[Cb cap]
+6.3 +4.1 86 +4 +4 по сезону 1020.6 1005.6
СЗ 2 10 км слаб. дождь 10/9 600 м
[Sc]
+6.3 +4.6 89 +4 +4 прохладно 1020.5 1005.5
С 1 15 км слаб. дождь 10/10 300 м
[Sc]
+6.5 +5.0 90 +5 +5 по сезону 1020.5 1005.5
З 1 20 км в посл. час дождь 10/10 600 м
[Sc]
+6.6 +5.2 91 +5 +5 тепло 1020.2 1005.2
З 1 20 км {ливн. дождь, дождь} 10/10 600 м
[Sc]
+6.3 +5.1 92 +5 +5 по сезону 1020.5 1005.5 +3.1 +6.6 0.4
З 1 15 км 10/10 300 м
[Sc]
+6.1 +5.2 94 +5 +5 по сезону 1020.8 1005.8
СЗ 1 15 км 10/10 450 м
[Sc]
+6.1 +5.2 94 +5 +5 тепло 1020.9 1005.9
З 1 8000 м в посл. час дождь 10/10 150 м
[Sc]
+6.1 +5.2 94 +5 +5 по сезону 1020.9 1005.9
З 1 6000 м дымка 10/9 90 м
[St]
+6.0 +5.3 95 +5 +5 тепло 1020.9 1005.9
З 2 3500 м слаб. морось 10/10 180 м
[St]
+5.7 +5.1 96 +3 +3 тепло 1020.7 1005.6
З 1 1600 м слаб. морось {дождь} 10/10 90 м
[St]
+5.7 +5.3 97 +4 +4 по сезону 1020.4 1005.3 0.0
З 2 2500 м в посл. час морось 10/10 90 м
[Sc]
+5.6 +5.2 97 +3 +3 тепло 1020.1 1005.0
З 2 3500 м дымка 10/9 360 м
[Sc]
+5.5 +5.1 97 +3 +3 тепло 1019.8 1004.7
З 2 3500 м дымка 10/10 330 м
[Sc]
+5.6 +5.2 97 +3 +3 по сезону 1019.5 1004.5
З 1 3600 м дымка 10/9 600 м
[Sc]
+5.5 +5.1 97 +4 +4 тепло 1019.3 1004.2
З 1 6000 м дымка 10/9 300 м
[Sc]
+6.0 +5.6 97 +5 +5 тепло 1019.2 1004.2
С 1 7000 м дымка 10/9 360 м
[Sc]
+6.7 +6.0 95 +6 +6 тепло 1019.4 1004.4 +5.5 +6.7 0.1 0.5
В 1 5000 м дымка 10/9 210 м
[Cb cap]
+7.3 +6.2 93 +6 +7 тепло 1019.5 1004.5
В 1 7000 м дымка 10/9 240 м
[St]
+8.1 +6.6 90 +7 +8 тепло 1019.5 1004.6
ЮВ 3 10 км 10/9 300 м
[Sc]
+8.6 +6.2 85 +6 +7 по сезону 1019.4 1004.5
Ю 3 15 км 10/9 420 м
[Sc]
+9.1 +6.0 81 +7 +7 тепло 1019.5 1004.6
Ю 2 15 км 10/9 450 м
[Sc]
+9.1 +5.8 80 +7 +8 тепло 1019.6 1004.7
Ю 1 15 км 10/9 300 м
[Sc]
+9.7 +5.9 77 +9 +10 тепло 1019.5 1004.7
СВ 1 20 км 10/9 600 м
[Cu Sc]
+10.1 +5.5 73 +10 +10 тепло 1019.4 1004.6
ЮВ 3 20 км в посл. час ливневой дождь 10/9 600 м
[Cu Sc]
+9.4 +5.6 77 +7 +7 тепло 1019.5 1004.7
Ю 2 20 км {ливн. дождь} 10/9 600 м
[Cu Sc]
+9.6 +6.1 79 +8 +8 по сезону 1019.5 1004.7
ЮВ 2 20 км 9/9 600 м
[Cu Sc]
+10.0 +5.8 75 +9 +9 тепло 1019.5 1004.7
Ю 2 20 км 9/9 1000 м
[Sc]
+9.7 +5.7 76 +8 +8 тепло 1019.7 1004.9
СЗ 1 15 км {ливн. дождь} 9/6 1500 м
[Sc Cs]
+8.8 +5.5 80 +8 +8 тепло 1020.4 1005.5 +6.7 +10.3 0.0
штиль 0 15 км 9/9 1500 м
[Sc]
+7.8 +5.6 86 +7 +7 тепло 1020.8 1005.8
СЗ 1 8000 м дымка 9/9 1500 м
[Sc]
+7.4 +5.7 89 +6 +6 тепло 1020.9 1005.9
С 1 5000 м дымка 9/9 1500 м
[Sc]
+6.2 +4.8 91 +5 +5 по сезону 1020.9 1005.9
С 1 5000 м дымка 9/9 1000 м
[Sc]
+6.0 +5.0 93 +5 +5 тепло 1020.7 1005.7
С 1 3500 м дымка 9/9 1000 м
[Sc]
+6.3 +5.4 94 +5 +5 тепло 1020.5 1005.5
СЗ 1 5000 м дымка 9/9 1000 м
[Sc]
+6.4 +5.7 95 +5 +5 тепло 1019.9 1004.9
СЗ 1 5000 м дымка 9/9 1000 м
[Sc]
+5.8 +4.9 94 +4 +4 тепло 1019.8 1004.8
С 1 3500 м дымка 8/8 1500 м
[Sc]
+5.5 +4.8 95 +4 +4 тепло 1019.9 1004.8
З 1 4000 м дымка 9/9 1500 м
[Sc]
+5.2 +4.5 95 +4 +4 тепло 1019.7 1004.6
Местоположение метеостанции Вроцлав (Польша): широта 51.10 долгота 16.88 высота над уровнем моря 124 м.
В архиве по умолчанию представлена погода во Вроцлаве за последнюю неделю. Архивные данные за месяц целиком и за предыдущие месяцы, начиная с января 2011 года, Вы можете получить, выбрав интересующий диапазон дат из раскрывающегося списка и нажав кнопку "Найти!".
*Определитесь, кто Вы:
Внимание! Время в таблицах - всемирное. Для получения местного времени необходимо прибавить поправку, которая равна 1 ч.
Смотрите также архив погоды в соседних городах и на ближайших метеорологических станциях:
Партнеры нашего сайта:      
Пояснения к столбцам:
  • Ветер - указаны скорость ветра в м/с - средняя за 10 мин, порывы в срок и между сроками (в фигурных скобках) и направление, откуда дует ветер: С - северный,
  • СВ - северо-восточный, В - восточный, ЮВ - юго-восточный, Ю - южный, ЮЗ - юго-западный, З - западный, СЗ - северо-западный.
  • Видимость - горизонтальная дальность видимости в метрах или километрах. При видимости от 1 до 10 км при отсутствии осадков обычно наблюдается дымка, при ухудшении видимости до 1 км и менее - туман. В сухую погоду видимость может ухудшаться дымом, пылью или мглою.
  • Явления - указаны атмосферные явления, наблюдавшиеся в срок или в последний час перед сроком; фигурными скобками обозначены явления, наблюдавшиеся между сроками (за 1-3 часа до срока); квадратными скобками обозначены град или гололедные отложения с указанием их диаметра в мм.
  • Облачность - указаны через наклонную черту общая и нижняя облачность в баллах и высота нижней границы облаков в метрах; квадратными скобками обозначены формы облаков: Ci - перистые, Cs - перисто-слоистые, Cc - перисто-кучевые, Ac - высококучевые, As - высокослоистые, Sc - слоисто-кучевые, Ns - слоисто-дождевые, Cu - кучевые, Cb - кучево-дождевые. Подробнее классификацию облаков см. в Атласе облаков (PDF).
  • T - Температура воздуха - температура, измеренная на высоте 2 м над землей.
  • Td - Температура точки росы - температура, при понижении до которой содержащийся в воздухе водяной пар достигнет насыщения.
  • f - Относительная влажность воздуха - влажноcть воздуха, измеренная на высоте 2 м над землей.
  • Te - Эффективная температура - температура, которую ощущает одетый по сезону человек в тени. Характеристика душности погоды. При расчете учитывается влияние влажности воздуха и скорости ветра на теплоощущения человека.
  • Tes - Эффективная температура на солнце - температура, которую ощущает человек, с поправкой на солнечный нагрев. Характеристика знойности погоды. Зависит от высоты солнца над горизонтом, облачности и скорости ветра. Ночью, в пасмурную погоду, а также при ветре 12 м/с и более поправка равна нулю.
  • P - Атмосферное давление - приведенное к уровню моря атмосферное давление.
  • Po - Атмосферное давление - измеренное на уровне метеостанции атмосферное давление.
  • Tmin - Минимальная температура - минимум температуры воздуха на высоте 2 м над землей.
  • Tmax - Максимальная температура - максимум температуры воздуха на высоте 2 м над землей.
  • R - Количество осадков - Количество выпавших осадков за период времени, мм. При наведении курсора мыши на число - период времени, за который выпало указанное количество осадков.
  • R24 - Количество осадков - Количество выпавших осадков за 24 часа, мм.
  • S - Снежный покров - Высота снежного покрова, см. При наведении курсора мыши на число - состояние снежного покрова и степень покрытия местности в баллах.